Date String (YYYY-MM-DD hh:mm:ss) UTC,Instrument flags,Ambient pressure (hPa),Sample flow (lpm),Bypass flow (lpm),Sample temperature (°C),Ambient temperature (°C),ASC tube jacket temperature (°C),LED temperature (°C),Box temperature (°C),Sample RH (%),Span deviation,Mass concentration (μg/m³),Mass concentration (μg/m³),Mass concentration (μg/m³)
DateTimeUTC,F1_M11,P_M11,Q1_M11,Q2_M11,T1_M11,T2_M11,T3_M11,T4_M11,T5_M11,U1_M11,ZSPAN_M11,X0_M11,X2_M11,X1_M11
2022-12-18 00:00:00,,0822.5,4.97,0.00,23.2,21.8,00.0,32.0,25.0,05.0,0000.0,0013.73,0002.88,0001.96
2022-12-18 00:01:00,,0822.5,5.06,0.00,23.2,21.8,00.0,32.0,25.0,05.0,0000.0,0013.55,0002.91,0001.99
2022-12-18 00:02:00,,0822.5,4.97,0.00,23.2,21.8,00.0,32.0,25.0,05.0,0000.0,0012.83,0002.86,0001.99
2022-12-18 00:03:00,,0822.5,5.00,0.00,23.2,21.7,00.0,32.0,25.0,05.0,0000.0,0011.85,0002.80,0002.00
2022-12-18 00:04:00,,0822.6,5.02,0.00,23.2,21.7,00.0,32.0,25.0,05.0,0000.0,0011.72,0002.82,0002.02
2022-12-18 00:05:00,,0822.5,4.97,0.00,23.2,21.7,00.0,32.0,25.0,05.0,0000.0,0011.33,0002.83,0002.02
2022-12-18 00:06:00,,0822.6,5.05,0.00,23.2,21.7,00.0,32.0,25.0,05.0,0000.0,0010.54,0002.84,0002.02
2022-12-18 00:07:00,,0822.5,4.98,0.00,23.2,21.7,00.0,32.0,25.0,05.0,0000.0,0010.70,0002.86,0002.02
2022-12-18 00:08:00,,0822.4,4.98,0.00,23.2,21.7,00.0,32.0,25.0,05.0,0000.0,0009.47,0002.80,0001.99
2022-12-18 00:09:00,,0822.5,5.05,0.00,23.2,21.8,00.0,32.0,25.0,05.0,0000.0,0008.91,0002.81,0001.98
2022-12-18 00:10:00,,0822.5,4.97,0.00,23.2,21.7,00.0,32.0,25.0,05.0,0000.0,0007.91,0002.79,0001.98
2022-12-18 00:11:00,,0822.5,4.99,0.00,23.2,21.7,00.0,32.0,25.0,05.0,0000.0,0007.89,0002.79,0001.97
2022-12-18 00:12:00,,0822.6,5.05,0.00,23.2,21.7,00.0,32.0,25.0,05.0,0000.0,0008.24,0002.82,0001.96
2022-12-18 00:13:00,,0822.6,4.98,0.00,23.2,21.7,00.0,32.0,25.0,05.0,0000.0,0008.83,0002.88,0001.97
2022-12-18 00:14:00,,0822.5,5.01,0.00,23.2,21.7,00.0,32.0,25.0,05.0,0000.0,0008.95,0002.93,0001.97
2022-12-18 00:15:00,,0822.4,5.01,0.00,23.2,21.7,00.0,32.0,25.0,04.9,0000.0,0008.68,0002.91,0001.95
2022-12-18 00:16:00,,0822.4,4.98,0.00,23.2,21.7,00.0,32.0,25.0,04.9,0000.0,0008.07,0002.93,0001.94
2022-12-18 00:17:00,,0822.4,5.04,0.00,23.1,21.7,00.0,32.0,25.0,04.9,0000.0,0008.14,0003.03,0001.93
2022-12-18 00:18:00,,0822.4,4.98,0.00,23.1,21.7,00.0,31.9,25.0,04.9,0000.0,0007.89,0003.07,0001.92
2022-12-18 00:19:00,,0822.4,4.97,0.00,23.1,21.7,00.0,32.0,25.0,04.9,0000.0,0007.84,0003.08,0001.91
2022-12-18 00:20:00,,0822.4,5.05,0.00,23.1,21.6,00.0,32.0,25.0,04.9,0000.0,0008.18,0003.08,0001.92
2022-12-18 00:21:00,,0822.5,4.98,0.00,23.1,21.6,00.0,31.9,25.0,05.0,0000.0,0008.40,0003.15,0001.92
2022-12-18 00:22:00,,0822.4,4.97,0.00,23.1,21.6,00.0,31.9,25.0,04.9,0000.0,0008.59,0003.21,0001.94
2022-12-18 00:23:00,,0822.4,5.04,0.00,23.1,21.5,00.0,31.9,24.9,04.9,0000.0,0008.45,0003.22,0001.95
2022-12-18 00:24:00,,0822.4,4.97,0.00,23.1,21.5,00.0,31.9,24.9,04.9,0000.0,0007.99,0003.25,0001.95
2022-12-18 00:25:00,,0822.4,5.04,0.00,23.1,21.5,00.0,31.9,24.9,04.9,0000.0,0008.00,0003.23,0001.96
2022-12-18 00:26:00,,0822.4,4.96,0.00,23.1,21.5,00.0,31.9,24.9,04.9,0000.0,0008.02,0003.25,0001.99
2022-12-18 00:27:00,,0822.4,4.97,0.00,23.1,21.5,00.0,31.9,24.9,04.9,0000.0,0007.91,0003.25,0002.01
2022-12-18 00:28:00,,0822.4,5.03,0.00,23.1,21.5,00.0,31.9,24.9,04.9,0000.0,0007.89,0003.24,0002.04
2022-12-18 00:29:00,,0822.4,4.97,0.00,23.0,21.5,00.0,31.9,24.9,04.9,0000.0,0007.91,0003.24,0002.06
2022-12-18 00:30:00,,0822.5,5.04,0.00,23.0,21.5,00.0,31.9,24.9,04.9,0000.0,0008.10,0003.26,0002.10
2022-12-18 00:31:00,,0822.4,4.97,0.00,23.0,21.4,00.0,31.9,24.9,04.9,0000.0,0008.22,0003.31,0002.14
2022-12-18 00:32:00,,0822.4,4.97,0.00,23.0,21.4,00.0,31.9,24.8,04.9,0000.0,0008.15,0003.30,0002.16
2022-12-18 00:33:00,,0822.4,5.04,0.00,23.0,21.4,00.0,31.9,24.8,04.9,0000.0,0008.11,0003.29,0002.15
2022-12-18 00:34:00,,0822.4,4.97,0.00,22.9,21.3,00.0,31.9,24.8,04.9,0000.0,0008.92,0003.30,0002.17
2022-12-18 00:35:00,,0822.4,5.04,0.00,22.9,21.3,00.0,31.8,24.8,04.9,0000.0,0008.97,0003.32,0002.18
2022-12-18 00:36:00,,0822.4,4.98,0.00,22.9,21.3,00.0,31.8,24.8,05.0,0000.0,0009.12,0003.39,0002.22
2022-12-18 00:37:00,,0822.4,4.98,0.00,22.9,21.3,00.0,31.8,24.8,05.0,0000.0,0009.60,0003.46,0002.24
2022-12-18 00:38:00,,0822.4,5.03,0.00,22.9,21.3,00.0,31.8,24.7,05.0,0000.0,0009.74,0003.48,0002.27
2022-12-18 00:39:00,,0822.4,4.97,0.00,22.9,21.2,00.0,31.8,24.7,05.0,0000.0,0009.72,0003.47,0002.27
2022-12-18 00:40:00,,0822.5,5.05,0.00,22.9,21.2,00.0,31.8,24.6,05.0,0000.0,0009.78,0003.48,0002.28
2022-12-18 00:41:00,,0822.4,4.97,0.00,22.8,21.2,00.0,31.8,24.6,05.0,0000.0,0009.54,0003.49,0002.26
2022-12-18 00:42:00,,0822.4,5.04,0.00,22.8,21.2,00.0,31.8,24.6,05.0,0000.0,0009.42,0003.48,0002.23
2022-12-18 00:43:00,,0822.5,4.97,0.00,22.8,21.1,00.0,31.7,24.6,05.0,0000.0,0009.57,0003.50,0002.22
2022-12-18 00:44:00,,0822.5,5.02,0.00,22.8,21.1,00.0,31.7,24.6,05.0,0000.0,0010.21,0003.49,0002.21
2022-12-18 00:45:00,,0822.5,4.98,0.00,22.8,21.1,00.0,31.7,24.5,05.0,0000.0,0010.87,0003.46,0002.19
2022-12-18 00:46:00,,0822.5,4.99,0.00,22.7,21.1,00.0,31.7,24.5,05.0,0000.0,0010.54,0003.40,0002.18
2022-12-18 00:47:00,,0822.5,5.01,0.00,22.7,21.1,00.0,31.7,24.6,04.9,0000.0,0010.85,0003.36,0002.17
2022-12-18 00:48:00,,0822.5,4.99,0.00,22.7,21.1,00.0,31.7,24.6,04.9,0000.0,0010.96,0003.33,0002.17
2022-12-18 00:49:00,,0822.5,5.01,0.00,22.7,21.1,00.0,31.6,24.6,05.0,0000.0,0010.97,0003.38,0002.20
2022-12-18 00:50:00,,0822.5,5.03,0.00,22.7,21.1,00.0,31.6,24.6,05.0,0000.0,0011.27,0003.46,0002.24
2022-12-18 00:51:00,,0822.4,4.96,0.00,22.7,21.1,00.0,31.6,24.6,05.0,0000.0,0011.65,0003.48,0002.28
2022-12-18 00:52:00,,0822.5,5.03,0.00,22.7,21.1,00.0,31.6,24.5,05.0,0000.0,0012.00,0003.50,0002.31
2022-12-18 00:53:00,,0822.5,4.96,0.00,22.7,21.2,00.0,31.6,24.5,05.0,0000.0,0012.33,0003.49,0002.35
2022-12-18 00:54:00,,0822.5,5.03,0.00,22.7,21.1,00.0,31.6,24.5,05.0,0000.0,0012.27,0003.50,0002.39
2022-12-18 00:55:00,,0822.4,4.96,0.00,22.7,21.1,00.0,31.6,24.5,05.0,0000.0,0011.67,0003.50,0002.42
2022-12-18 00:56:00,,0822.4,5.03,0.00,22.7,21.1,00.0,31.6,24.5,05.0,0000.0,0010.68,0003.53,0002.44
2022-12-18 00:57:00,,0822.4,4.96,0.00,22.7,21.1,00.0,31.6,24.4,05.0,0000.0,0010.61,0003.55,0002.46
2022-12-18 00:58:00,,0822.4,5.03,0.00,22.6,21.0,00.0,31.5,24.4,05.0,0000.0,0010.42,0003.54,0002.46
2022-12-18 00:59:00,,0822.4,4.96,0.00,22.6,21.0,00.0,31.5,24.4,05.0,0000.0,0009.89,0003.51,0002.45
